Volver al catálogo

ONEWEB-0163

ActivoComunicacionesPO
NORAD 48061·PAYLOAD·🇬🇧 United Kingdom

Lanzado Mar 25, 2021 desde Vostochny Cosmodrome

Loading…

Próximos Pases (próximas 24 horas)

TLE

ActualizadoSource: CelesTrak SupGP

Época: Sep 14, 2026, 15:40 UTC

1 48061C 21025V   26257.65295556 -.00000742  00000+0 -20346-2 0  2572
2 48061  87.8929 302.4279 0001628  96.3052   3.3181 13.13474013    17

Sigue ONEWEB-0163 en tiempo real con AllMySat

Download on the App Store